Regional Weather Roundup
Issued by NWS

Home | Current Version | Previous Version | Graphics & Text | Print | Product List | Glossary Off
Versions: 1 2 3 4 5 6 7 8 9 10 11 12 13 14 15 16 17 18 19 20 21 22 23 24 25 26 27 28 29 30 31 32 33 34 35 36 37 38 39 40 41 42 43 44 45 46 47 48 49 50

000
ASUS45 KCYS 280010
RWRWY

WYOMING REGIONAL WEATHER ROUNDUP
NATIONAL WEATHER SERVICE CHEYENNE WY
600 PM MDT MON MAR 27 2017

NOTE:  "FAIR" INDICATES FEW OR NO CLOUDS BELOW 12,000 FEET
WITH NO SIGNIFICANT WEATHER AND/OR OBSTRUCTIONS TO VISIBILITY.

WYZ001-280100-
YELLOWSTONE NATIONAL PARK

CITY           SKY/WX    TMP DP  RH WIND       PRES   REMARKS
LK YELLOWSTONE   N/A     31  29  92 CALM      29.94R
6HR MIN TEMP:  31; 6HR MAX TEMP:  37; 6HR PCP:  0.01;

W YELLOWSTONE  NOT AVBL

$$
WYZ002>013-054>058-071-098>099-280100-
NORTHERN WYOMING

CITY           SKY/WX    TMP DP  RH WIND       PRES   REMARKS
JACKSON        PTSUNNY   37  34  87 N8        29.90R WCI  31
CODY           CLOUDY    53  25  33 SE13      29.84R
GREYBULL       FAIR      61  22  22 NW5       29.78S
6HR MIN TEMP:  55; 6HR MAX TEMP:  63;

WORLAND        FAIR      59  25  27 CALM      29.78S
6HR MIN TEMP:  53; 6HR MAX TEMP:  61;

SHERIDAN       CLOUDY    57  32  38 SW6       29.83R
6HR MIN TEMP:  56; 6HR MAX TEMP:  62;

BUFFALO        CLOUDY    54  28  36 NE3       29.86R
6HR MIN TEMP:  50; 6HR MAX TEMP:  57; 6HR PCP: TRACE;

GILLETTE       CLOUDY    57  28  33 N6        29.82R
6HR MIN TEMP:  53; 6HR MAX TEMP:  62;

HULETT         FAIR      54  34  47 E7        29.84S
NEWCASTLE      FAIR      59  21  23 CALM      29.81S

$$
WYZ014>020-022>026-101>103-280100-
CENTRAL WYOMING

CITY           SKY/WX    TMP DP  RH WIND       PRES   REMARKS
BIG PINEY      CLOUDY    41  26  55 N12       29.86R
6HR MIN TEMP:  39; 6HR MAX TEMP:  45;

PINEDALE       CLOUDY    39  28  65 NW9       29.87S WCI  33
DUBOIS         CLOUDY    41  21  45 CALM      29.84S
LANDER         FAIR      52  23  32 N6        29.78S
6HR MIN TEMP:  49; 6HR MAX TEMP:  55;

RIVERTON       FAIR      53  25  33 NE7       29.80S
6HR MIN TEMP:  50; 6HR MAX TEMP:  55;

CASPER         FAIR      55  23  28 CALM      29.80S
6HR MIN TEMP:  52; 6HR MAX TEMP:  58;

DOUGLAS        FAIR      59  19  21 SE6       29.80S
6HR MIN TEMP:  57; 6HR MAX TEMP:  62;


$$
WYZ021-027>030-104>119-280100-
SOUTHERN WYOMING

CITY           SKY/WX    TMP DP  RH WIND       PRES   REMARKS
EVANSTON       SNOW      32  30  92 N17       29.85R VSB 1/4 WCI  21
6HR MIN TEMP:  32; 6HR MAX TEMP:  44;

KEMMERER       LGT SNOW  34  32  93 NW9       29.87S WCI  26
FORT BRIDGER   LGT RAIN  37  37 100 NW6       29.87R WCI  32
ROCK SPRINGS   CLOUDY    38  35  89 NE12      29.84S WCI  30
6HR MIN TEMP:  37; 6HR MAX TEMP:  51; 6HR PCP:  0.08;

DIXON          DRIZZLE   41  38  89 W5        29.89S
RAWLINS        CLOUDY    43  31  62 W10       29.85R
6HR MIN TEMP:  42; 6HR MAX TEMP:  53; 6HR PCP: TRACE;

SARATOGA       CLOUDY    46  27  46 W7        29.83R
LARAMIE        PTSUNNY   47  27  45 SE13      29.82F
6HR MIN TEMP:  47; 6HR MAX TEMP:  51;

CHEYENNE       CLOUDY    54  22  28 S9        29.81S
6HR MIN TEMP:  51; 6HR MAX TEMP:  57;

TORRINGTON     CLOUDY    62  22  21 SE6       29.77R
6HR MIN TEMP:  58; 6HR MAX TEMP:  67;

PINE BLUFFS    CLOUDY    55  30  38 SE6G23    29.81S

$$



USA.gov is the U.S. government's official web portal to all federal, state and local government web resources and services.